Content
SEND FEEDBACK

Daily
Averages
Monthly
Summary
United States of America

REDDING, CALIFORNIA


Home > North America > United States > California
Elevation: 535 feet     Latitude: 40 31N     Longitude: 122 18W

WEATHER
 
SELECT A DAY
Number of Records: 189,111;   Date Range: 1/1/95 - 9/30/14
 
SHARE

PRINT THIS DATA

[ ← Previous Day ]
WEATHER ALMANAC - JANUARY 1, 2013
[ Next Day → ]
[ °C ]   °F
Weather ElementAverageHighLow
Temperature41.6 °F55.9 °F (2:53 pm)26.1 °F (5:53 am)
Dewpoint20.6 °F26.1 °F (4:53 am)15.1 °F (1:53 pm)
Humidity50.3 %89 % (3:53 am)21 % (1:53 pm)
Barometer30.29 in30.33 in (8:53 am)30.25 in (3:53 pm)
Wind Speed7.5 mph19.6 mph (11:53 am)
Wind Gust23 mph (1:53 pm)
Weather ElementAverage
Visibility9.7 mi
Wind DirectionS (181.3 °)

Weather ElementTotal
Precipitation---
Heating Degree Days24 (Base 65)
Averaged from 23 records on January 1, 2013
WEATHER CONDITIONS BREAKOUT
WIND DIRECTION BREAKOUT
WEATHER BY HOUR - JANUARY 1, 2013
[ °C ]   °F
Local TimeTemperatureDewpointHumidityBarometerVisibilityWind DirectionWind SpeedGust SpeedPrecipitationEventsConditions
1:53 AM28.0 °F25.0 °F88 %30.30 in9.0 miNW (310°)5.8 mphClear
2:53 AM28.0 °F24.1 °F85 %30.29 in10.0 miCalmClear
3:53 AM27.0 °F24.1 °F89 %30.30 in6.0 miCalmClear
4:53 AM30.0 °F26.1 °F85 %30.30 in9.0 miNW (320°)3.5 mphClear
5:53 AM26.1 °F23.0 °F88 %30.31 in9.0 miCalmClear
6:53 AM26.1 °F23.0 °F88 %30.29 in10.0 miCalmClear
7:53 AM27.0 °F21.9 °F81 %30.31 in10.0 miCalmClear
8:53 AM32.0 °F25.0 °F75 %30.33 in10.0 miWNW (300°)5.8 mphClear
9:53 AM45.0 °F26.1 °F48 %30.33 in10.0 miNorth (350°)8.1 mphClear
10:53 AM50.0 °F21.0 °F32 %30.33 in10.0 miNorth (360°)11.5 mph20.7 mphClear
11:53 AM53.1 °F17.1 °F24 %30.30 in10.0 miNorth (10°)19.6 mphClear
12:53 PM54.0 °F16.0 °F22 %30.28 in10.0 miNNE (20°)16.1 mphClear
1:53 PM55.0 °F15.1 °F21 %30.26 in10.0 miNorth (10°)17.3 mph23.0 mphClear
2:53 PM55.9 °F16.0 °F21 %30.26 in10.0 miNorth (360°)16.1 mphClear
3:53 PM54.0 °F18.0 °F24 %30.25 in10.0 miNorth (360°)16.1 mphClear
4:53 PM52.0 °F17.1 °F25 %30.26 in10.0 miNorth (360°)10.4 mphClear
5:53 PM50.0 °F18.0 °F28 %30.25 in10.0 miNorth (10°)13.8 mphClear
6:53 PM48.0 °F18.0 °F30 %30.26 in10.0 miNNW (330°)4.6 mphClear
7:53 PM46.9 °F19.0 °F33 %30.27 in10.0 miNNW (340°)5.8 mphClear
8:53 PM46.9 °F18.0 °F32 %30.27 in10.0 miNorth (360°)8.1 mphClear
9:53 PM46.9 °F19.0 °F33 %30.28 in10.0 miNorth (350°)6.9 mphClear
10:53 PM37.9 °F21.0 °F51 %30.29 in10.0 miNNE (20°)3.5 mphClear
11:53 PM37.0 °F21.9 °F54 %30.29 in10.0 miCalmClear
Hourly data recorded from KRDD, located miles away from Redding, California







STORIES FROM OUR PARTNERS